CDT,Max TemperatureF,Mean TemperatureF,Min TemperatureF,Max Dew PointF,MeanDew PointF,Min DewpointF,Max Humidity, Mean Humidity, Min Humidity, Max Sea Level PressureIn, Mean Sea Level PressureIn, Min Sea Level PressureIn, Max VisibilityMiles, Mean VisibilityMiles, Min VisibilityMiles, Max Wind SpeedMPH, Mean Wind SpeedMPH, Max Gust SpeedMPH,PrecipitationIn, CloudCover, Events, WindDirDegrees
2013-4-1,76,65,52,65,57,50,100,76,46,30.06,30.00,29.92,10,10,10,14,7,18,0.00,1,,302
2013-4-2,80,62,44,79,47,42,100,71,27,30.14,30.08,30.04,10,9,2,14,3,20,0.00,3,,109
2013-4-3,61,57,53,59,55,50,100,90,72,30.09,30.00,29.83,10,9,5,17,5,25,0.51,7,Rain-Thunderstorm,44
2013-4-4,73,66,59,63,60,59,100,90,61,29.96,29.91,29.85,10,8,2,10,5,,0.00,7,,352
2013-4-5,64,54,46,59,51,44,100,85,52,30.10,29.98,29.87,10,10,5,15,9,21,0.00,6,,343
2013-4-6,72,56,39,49,46,39,99,69,37,30.19,30.13,30.10,10,10,9,10,4,,0.00,1,,166
2013-4-7,76,61,46,62,56,45,99,79,55,30.18,30.12,30.07,10,10,10,14,6,,0.00,2,,144
2013-4-8,80,66,53,63,57,54,100,88,44,30.13,30.06,30.03,10,5,0,15,4,23,0.00,1,Fog,115
2013-4-9,82,70,58,61,58,56,98,68,42,30.14,30.09,30.03,10,10,10,18,8,25,0.00,1,,140
2013-4-10,82,70,58,64,60,56,97,69,51,30.09,30.02,29.93,10,10,10,18,9,28,0.00,2,,149
2013-4-11,79,72,67,73,70,66,100,93,77,29.91,29.79,29.63,10,8,0,31,13,44,1.08,7,Rain-Thunderstorm,166
2013-4-12,75,63,52,66,54,43,100,76,32,29.98,29.86,29.75,10,10,10,15,9,20,0.00,4,,327
2013-4-13,81,64,47,56,47,42,90,56,26,30.06,29.99,29.92,10,10,10,12,5,,0.00,1,,31
2013-4-14,64,61,58,63,59,54,100,95,68,29.97,29.89,29.72,10,6,1,22,6,31,1.36,6,Rain-Thunderstorm,57
2013-4-15,81,70,59,68,63,59,100,87,64,30.08,29.97,29.87,10,10,6,12,4,,0.00,6,,114
2013-4-16,87,75,64,68,66,64,99,78,47,30.14,30.11,30.06,10,10,10,16,5,21,0.00,2,,132
2013-4-17,83,74,65,68,65,62,99,77,54,30.17,30.11,30.04,10,10,7,12,5,18,0.00,4,,146
2013-4-18,79,69,60,71,67,60,97,83,69,30.05,29.97,29.91,10,10,6,20,9,26,0.00,5,,146
2013-4-19,75,62,49,73,62,47,96,92,79,30.14,29.94,29.85,10,8,0,22,13,31,0.99,7,Fog-Rain,257
2013-4-20,67,55,43,49,40,33,97,64,34,30.25,30.19,30.14,10,10,10,16,9,24,0.00,1,,14
2013-4-21,75,57,39,47,43,38,100,60,30,30.22,30.18,30.13,10,10,10,15,5,20,0.00,1,,50
2013-4-22,71,63,55,58,53,45,95,70,55,30.17,30.13,30.10,10,10,10,10,5,,0.00,5,,45
2013-4-23,77,66,57,60,57,55,99,76,50,30.16,30.11,30.07,10,10,10,12,5,20,0.00,4,,129
2013-4-24,78,66,55,70,61,55,100,95,54,30.16,30.10,30.05,10,4,0,15,2,22,0.00,4,Fog,88
2013-4-25,80,70,58,63,57,42,100,75,42,30.28,30.23,30.13,10,8,0,12,7,,0.00,5,Fog,353
2013-4-26,84,66,49,54,45,36,83,50,26,30.32,30.26,30.21,10,10,10,12,5,,0.00,2,,43
2013-4-27,78,66,53,70,64,51,100,81,61,30.25,30.17,30.09,10,10,8,16,7,21,0.00,4,,156
2013-4-28,82,74,66,70,66,59,100,89,48,30.12,30.06,29.98,10,6,0,15,5,21,0.00,3,Fog,153
2013-4-29,78,70,64,68,65,61,100,90,65,30.01,29.97,29.92,10,9,1,20,5,21,0.56,5,Rain-Thunderstorm,98
2013-4-30,82,71,60,68,63,59,100,91,48,29.99,29.96,29.93,10,6,0,10,3,,0.00,5,Fog-Thunderstorm,94